owner,sensor,date,latitude,longitude,vertical_datum,wind_speed,wind_to_direction,wind_speed_of_gust,qcFlag 
WAVCIS,ioos:station:WAVCIS:CSI09:1,2010-11-01T00:00:00Z,29.1015,-89.9782,0.0,3.678,116.0,,'11111222,11111222,99999999' 
WAVCIS,ioos:station:WAVCIS:CSI09:1,2010-11-01T01:00:00Z,29.1015,-89.9782,0.0,3.394,135.0,,'11111222,11111222,99999999' 
WAVCIS,ioos:station:WAVCIS:CSI09:1,2010-11-01T02:00:00Z,29.1015,-89.9782,0.0,4.389,142.0,,'11111222,11111222,99999999' 
WAVCIS,ioos:station:WAVCIS:CSI09:1,2010-11-01T03:00:00Z,29.1015,-89.9782,0.0,5.207,153.0,,'11111222,11111222,99999999' 
WAVCIS,ioos:station:WAVCIS:CSI09:1,2010-11-01T04:00:00Z,29.1015,-89.9782,0.0,4.828,162.0,,'11111222,11111222,99999999' 
WAVCIS,ioos:station:WAVCIS:CSI09:1,2010-11-01T05:00:00Z,29.1015,-89.9782,0.0,6.34,168.0,,'11111222,11111222,99999999' 
WAVCIS,ioos:station:WAVCIS:CSI09:1,2010-11-01T06:00:00Z,29.1015,-89.9782,0.0,4.493,182.0,,'11111222,11111222,99999999' 
WAVCIS,ioos:station:WAVCIS:CSI09:1,2010-11-01T07:00:00Z,29.1015,-89.9782,0.0,2.94,188.0,,'11111222,11111222,99999999' 
WAVCIS,ioos:station:WAVCIS:CSI09:1,2010-11-01T08:00:00Z,29.1015,-89.9782,0.0,2.654,196.0,,'11111222,11111222,99999999' 
WAVCIS,ioos:station:WAVCIS:CSI09:1,2010-11-01T09:00:00Z,29.1015,-89.9782,0.0,3.716,181.0,,'11111222,11111222,99999999' 
WAVCIS,ioos:station:WAVCIS:CSI09:1,2010-11-01T10:00:00Z,29.1015,-89.9782,0.0,2.52,204.0,,'11111222,11111222,99999999' 
WAVCIS,ioos:station:WAVCIS:CSI09:1,2010-11-01T11:00:00Z,29.1015,-89.9782,0.0,2.349,219.0,,'11111222,11111222,99999999' 
WAVCIS,ioos:station:WAVCIS:CSI09:1,2010-11-01T12:00:00Z,29.1015,-89.9782,0.0,3.223,237.0,,'11111222,11111222,99999999' 
WAVCIS,ioos:station:WAVCIS:CSI09:1,2010-11-01T13:00:00Z,29.1015,-89.9782,0.0,2.44,262.0,,'11111222,11111222,99999999' 
WAVCIS,ioos:station:WAVCIS:CSI09:1,2010-11-01T14:00:00Z,29.1015,-89.9782,0.0,1.363,252.0,,'11111222,11111222,99999999' 
WAVCIS,ioos:station:WAVCIS:CSI09:1,2010-11-01T15:00:00Z,29.1015,-89.9782,0.0,1.426,160.0,,'11111222,11111222,99999999' 
WAVCIS,ioos:station:WAVCIS:CSI09:1,2010-11-01T16:00:00Z,29.1015,-89.9782,0.0,1.322,105.0,,'11111222,11111222,99999999' 
WAVCIS,ioos:station:WAVCIS:CSI09:1,2010-11-01T17:00:00Z,29.1015,-89.9782,0.0,5.227,144.0,,'11111222,11111222,99999999' 
WAVCIS,ioos:station:WAVCIS:CSI09:1,2010-11-01T18:00:00Z,29.1015,-89.9782,0.0,3.666,142.0,,'11111222,11111222,99999999' 
WAVCIS,ioos:station:WAVCIS:CSI09:1,2010-11-01T19:00:00Z,29.1015,-89.9782,0.0,4.489,146.0,,'11111222,11111222,99999999' 
WAVCIS,ioos:station:WAVCIS:CSI09:1,2010-11-01T20:00:00Z,29.1015,-89.9782,0.0,3.813,147.0,,'11111222,11111222,99999999' 
WAVCIS,ioos:station:WAVCIS:CSI09:1,2010-11-01T21:00:00Z,29.1015,-89.9782,0.0,3.752,133.0,,'11111222,11111222,99999999' 
WAVCIS,ioos:station:WAVCIS:CSI09:1,2010-11-01T22:00:00Z,29.1015,-89.9782,0.0,4.854,137.0,,'11111222,11111222,99999999' 
WAVCIS,ioos:station:WAVCIS:CSI09:1,2010-11-01T23:00:00Z,29.1015,-89.9782,0.0,3.468,139.0,,'11111222,11111222,99999999' 
WAVCIS,ioos:station:WAVCIS:CSI09:1,2010-11-02T00:00:00Z,29.1015,-89.9782,0.0,2.775,125.0,,'11111222,11111222,99999999' 
WAVCIS,ioos:station:WAVCIS:CSI09:1,2010-11-02T01:00:00Z,29.1015,-89.9782,0.0,4.024,135.0,,'11111222,11111222,99999999' 
WAVCIS,ioos:station:WAVCIS:CSI09:1,2010-11-02T02:00:00Z,29.1015,-89.9782,0.0,3.622,141.0,,'11111222,11111222,99999999' 
WAVCIS,ioos:station:WAVCIS:CSI09:1,2010-11-02T03:00:00Z,29.1015,-89.9782,0.0,3.274,160.0,,'11111222,11111222,99999999' 
WAVCIS,ioos:station:WAVCIS:CSI09:1,2010-11-02T04:00:00Z,29.1015,-89.9782,0.0,2.26,165.0,,'11111222,11111222,99999999' 
WAVCIS,ioos:station:WAVCIS:CSI09:1,2010-11-02T05:00:00Z,29.1015,-89.9782,0.0,2.672,149.0,,'11111222,11111222,99999999' 
WAVCIS,ioos:station:WAVCIS:CSI09:1,2010-11-02T06:00:00Z,29.1015,-89.9782,0.0,5.821,139.0,,'11111222,11111222,99999999' 
WAVCIS,ioos:station:WAVCIS:CSI09:1,2010-11-02T07:00:00Z,29.1015,-89.9782,0.0,9.45,137.0,,'11111222,11111222,99999999' 
WAVCIS,ioos:station:WAVCIS:CSI09:1,2010-11-02T08:00:00Z,29.1015,-89.9782,0.0,5.964,159.0,,'11111222,11111222,99999999' 
WAVCIS,ioos:station:WAVCIS:CSI09:1,2010-11-02T09:00:00Z,29.1015,-89.9782,0.0,5.81,171.0,,'11111222,11111222,99999999' 
WAVCIS,ioos:station:WAVCIS:CSI09:1,2010-11-02T10:00:00Z,29.1015,-89.9782,0.0,5.287,149.0,,'11111222,11111222,99999999' 
WAVCIS,ioos:station:WAVCIS:CSI09:1,2010-11-02T11:00:00Z,29.1015,-89.9782,0.0,4.423,156.0,,'11111222,11111222,99999999' 
WAVCIS,ioos:station:WAVCIS:CSI09:1,2010-11-02T12:00:00Z,29.1015,-89.9782,0.0,5.729,147.0,,'11111222,11111222,99999999' 
WAVCIS,ioos:station:WAVCIS:CSI09:1,2010-11-02T13:00:00Z,29.1015,-89.9782,0.0,5.46,132.0,,'11111222,11111222,99999999' 
WAVCIS,ioos:station:WAVCIS:CSI09:1,2010-11-02T14:00:00Z,29.1015,-89.9782,0.0,6.201,136.0,,'11111222,11111222,99999999' 
WAVCIS,ioos:station:WAVCIS:CSI09:1,2010-11-02T15:00:00Z,29.1015,-89.9782,0.0,6.581,140.0,,'11111222,11111222,99999999' 
WAVCIS,ioos:station:WAVCIS:CSI09:1,2010-11-02T16:00:00Z,29.1015,-89.9782,0.0,6.855,149.0,,'11111222,11111222,99999999' 
WAVCIS,ioos:station:WAVCIS:CSI09:1,2010-11-02T17:00:00Z,29.1015,-89.9782,0.0,6.984,141.0,,'11111222,11111222,99999999' 
WAVCIS,ioos:station:WAVCIS:CSI09:1,2010-11-02T18:00:00Z,29.1015,-89.9782,0.0,7.74,135.0,,'11111222,11111222,99999999' 
WAVCIS,ioos:station:WAVCIS:CSI09:1,2010-11-02T19:00:00Z,29.1015,-89.9782,0.0,7.31,177.0,,'11111222,11111222,99999999' 
WAVCIS,ioos:station:WAVCIS:CSI09:1,2010-11-02T20:00:00Z,29.1015,-89.9782,0.0,6.679,172.0,,'11111222,11111222,99999999' 
WAVCIS,ioos:station:WAVCIS:CSI09:1,2010-11-02T21:00:00Z,29.1015,-89.9782,0.0,6.742,175.0,,'11111222,11111222,99999999' 
WAVCIS,ioos:station:WAVCIS:CSI09:1,2010-11-02T22:00:00Z,29.1015,-89.9782,0.0,4.157,213.0,,'11111222,11111222,99999999' 
WAVCIS,ioos:station:WAVCIS:CSI09:1,2010-11-02T23:00:00Z,29.1015,-89.9782,0.0,3.324,208.0,,'11111222,11111222,99999999' 
WAVCIS,ioos:station:WAVCIS:CSI09:1,2010-11-03T00:00:00Z,29.1015,-89.9782,0.0,8.67,163.0,,'11111222,11111222,99999999' 
WAVCIS,ioos:station:WAVCIS:CSI09:1,2010-11-03T01:00:00Z,29.1015,-89.9782,0.0,7.37,171.0,,'11111222,11111222,99999999' 
WAVCIS,ioos:station:WAVCIS:CSI09:1,2010-11-03T02:00:00Z,29.1015,-89.9782,0.0,7.27,171.0,,'11111222,11111222,99999999' 
WAVCIS,ioos:station:WAVCIS:CSI09:1,2010-11-03T03:00:00Z,29.1015,-89.9782,0.0,2.974,204.0,,'11111222,11111222,99999999' 
WAVCIS,ioos:station:WAVCIS:CSI09:1,2010-11-03T04:00:00Z,29.1015,-89.9782,0.0,2.461,203.0,,'11111222,11111222,99999999' 
WAVCIS,ioos:station:WAVCIS:CSI09:1,2010-11-03T05:00:00Z,29.1015,-89.9782,0.0,2.486,216.0,,'11111222,11111222,99999999' 
WAVCIS,ioos:station:WAVCIS:CSI09:1,2010-11-03T06:00:00Z,29.1015,-89.9782,0.0,4.998,175.0,,'11111222,11111222,99999999' 
WAVCIS,ioos:station:WAVCIS:CSI09:1,2010-11-03T07:00:00Z,29.1015,-89.9782,0.0,8.22,121.0,,'11111222,11111222,99999999' 
WAVCIS,ioos:station:WAVCIS:CSI09:1,2010-11-03T08:00:00Z,29.1015,-89.9782,0.0,4.411,106.0,,'11111222,11111222,99999999' 
WAVCIS,ioos:station:WAVCIS:CSI09:1,2010-11-03T09:00:00Z,29.1015,-89.9782,0.0,9.14,153.0,,'11111222,11111222,99999999' 
WAVCIS,ioos:station:WAVCIS:CSI09:1,2010-11-03T10:00:00Z,29.1015,-89.9782,0.0,6.638,178.0,,'11111222,11111222,99999999' 
WAVCIS,ioos:station:WAVCIS:CSI09:1,2010-11-03T11:00:00Z,29.1015,-89.9782,0.0,8.57,240.0,,'11111222,11111222,99999999' 
WAVCIS,ioos:station:WAVCIS:CSI09:1,2010-11-03T12:00:00Z,29.1015,-89.9782,0.0,1.65,158.0,,'11111222,11111222,99999999' 
WAVCIS,ioos:station:WAVCIS:CSI09:1,2010-11-03T13:00:00Z,29.1015,-89.9782,0.0,2.636,207.0,,'11111222,11111222,99999999' 
WAVCIS,ioos:station:WAVCIS:CSI09:1,2010-11-03T14:00:00Z,29.1015,-89.9782,0.0,2.017,253.0,,'11111222,11111222,99999999' 
WAVCIS,ioos:station:WAVCIS:CSI09:1,2010-11-03T15:00:00Z,29.1015,-89.9782,0.0,4.671,266.0,,'11111222,11111222,99999999' 
WAVCIS,ioos:station:WAVCIS:CSI09:1,2010-11-03T16:00:00Z,29.1015,-89.9782,0.0,4.69,285.0,,'11111222,11111222,99999999' 
WAVCIS,ioos:station:WAVCIS:CSI09:1,2010-11-03T17:00:00Z,29.1015,-89.9782,0.0,5.692,281.0,,'11111222,11111222,99999999' 
WAVCIS,ioos:station:WAVCIS:CSI09:1,2010-11-03T18:00:00Z,29.1015,-89.9782,0.0,6.929,287.0,,'11111222,11111222,99999999' 
WAVCIS,ioos:station:WAVCIS:CSI09:1,2010-11-03T19:00:00Z,29.1015,-89.9782,0.0,4.655,335.0,,'11111222,11111222,99999999' 
WAVCIS,ioos:station:WAVCIS:CSI09:1,2010-11-03T20:00:00Z,29.1015,-89.9782,0.0,3.957,327.0,,'11111222,11111222,99999999' 
WAVCIS,ioos:station:WAVCIS:CSI09:1,2010-11-03T21:00:00Z,29.1015,-89.9782,0.0,3.049,3.0,,'11111222,11111222,99999999' 
WAVCIS,ioos:station:WAVCIS:CSI09:1,2010-11-03T22:00:00Z,29.1015,-89.9782,0.0,2.277,24.0,,'11111222,11111222,99999999' 
WAVCIS,ioos:station:WAVCIS:CSI09:1,2010-11-03T23:00:00Z,29.1015,-89.9782,0.0,1.203,49.0,,'11111222,11111222,99999999' 
WAVCIS,ioos:station:WAVCIS:CSI09:1,2010-11-04T00:00:00Z,29.1015,-89.9782,0.0,2.501,84.0,,'11111222,11111222,99999999' 
WAVCIS,ioos:station:WAVCIS:CSI09:1,2010-11-04T01:00:00Z,29.1015,-89.9782,0.0,4.429,58.0,,'11111222,11111222,99999999' 
WAVCIS,ioos:station:WAVCIS:CSI09:1,2010-11-04T02:00:00Z,29.1015,-89.9782,0.0,3.031,57.0,,'11111222,11111222,99999999' 
WAVCIS,ioos:station:WAVCIS:CSI09:1,2010-11-04T03:00:00Z,29.1015,-89.9782,0.0,3.306,69.0,,'11111222,11111222,99999999' 
WAVCIS,ioos:station:WAVCIS:CSI09:1,2010-11-04T04:00:00Z,29.1015,-89.9782,0.0,2.098,90.0,,'11111222,11111222,99999999' 
WAVCIS,ioos:station:WAVCIS:CSI09:1,2010-11-04T05:00:00Z,29.1015,-89.9782,0.0,1.098,123.0,,'11111222,11111222,99999999' 
WAVCIS,ioos:station:WAVCIS:CSI09:1,2010-11-04T06:00:00Z,29.1015,-89.9782,0.0,2.785,302.0,,'11111222,11111222,99999999' 
WAVCIS,ioos:station:WAVCIS:CSI09:1,2010-11-04T07:00:00Z,29.1015,-89.9782,0.0,6.065,322.0,,'11111222,11111222,99999999' 
WAVCIS,ioos:station:WAVCIS:CSI09:1,2010-11-04T08:00:00Z,29.1015,-89.9782,0.0,11.59,7.0,,'11111222,11111222,99999999' 
WAVCIS,ioos:station:WAVCIS:CSI09:1,2010-11-04T09:00:00Z,29.1015,-89.9782,0.0,9.24,22.0,,'11111222,11111222,99999999' 
WAVCIS,ioos:station:WAVCIS:CSI09:1,2010-11-04T10:00:00Z,29.1015,-89.9782,0.0,13.86,357.0,,'11111222,11111222,99999999' 
WAVCIS,ioos:station:WAVCIS:CSI09:1,2010-11-04T11:00:00Z,29.1015,-89.9782,0.0,13.74,353.0,,'11111222,11111222,99999999' 
WAVCIS,ioos:station:WAVCIS:CSI09:1,2010-11-04T12:00:00Z,29.1015,-89.9782,0.0,15.16,2.0,,'11111222,11111222,99999999' 
WAVCIS,ioos:station:WAVCIS:CSI09:1,2010-11-04T13:00:00Z,29.1015,-89.9782,0.0,17.1,11.0,,'11111222,11111222,99999999' 
WAVCIS,ioos:station:WAVCIS:CSI09:1,2010-11-04T14:00:00Z,29.1015,-89.9782,0.0,20.09,11.0,,'11111222,11111222,99999999' 
WAVCIS,ioos:station:WAVCIS:CSI09:1,2010-11-04T15:00:00Z,29.1015,-89.9782,0.0,17.8,11.0,,'11111222,11111222,99999999' 
WAVCIS,ioos:station:WAVCIS:CSI09:1,2010-11-04T16:00:00Z,29.1015,-89.9782,0.0,16.14,8.0,,'11111222,11111222,99999999' 
WAVCIS,ioos:station:WAVCIS:CSI09:1,2010-11-04T17:00:00Z,29.1015,-89.9782,0.0,14.56,9.0,,'11111222,11111222,99999999' 
WAVCIS,ioos:station:WAVCIS:CSI09:1,2010-11-04T18:00:00Z,29.1015,-89.9782,0.0,13.88,0.0,,'11111222,11111222,99999999' 
WAVCIS,ioos:station:WAVCIS:CSI09:1,2010-11-04T19:00:00Z,29.1015,-89.9782,0.0,13.84,359.0,,'11111222,11111222,99999999' 
WAVCIS,ioos:station:WAVCIS:CSI09:1,2010-11-04T20:00:00Z,29.1015,-89.9782,0.0,14.15,343.0,,'11111222,11111222,99999999' 
WAVCIS,ioos:station:WAVCIS:CSI09:1,2010-11-04T21:00:00Z,29.1015,-89.9782,0.0,13.95,348.0,,'11111222,11111222,99999999' 
WAVCIS,ioos:station:WAVCIS:CSI09:1,2010-11-04T22:00:00Z,29.1015,-89.9782,0.0,13.05,345.0,,'11111222,11111222,99999999' 
WAVCIS,ioos:station:WAVCIS:CSI09:1,2010-11-04T23:00:00Z,29.1015,-89.9782,0.0,13.46,333.0,,'11111222,11111222,99999999' 
WAVCIS,ioos:station:WAVCIS:CSI09:1,2010-11-05T00:00:00Z,29.1015,-89.9782,0.0,14.02,334.0,,'11111222,11111222,99999999' 
WAVCIS,ioos:station:WAVCIS:CSI09:1,2010-11-05T01:00:00Z,29.1015,-89.9782,0.0,15.32,322.0,,'11111222,11111222,99999999' 
WAVCIS,ioos:station:WAVCIS:CSI09:1,2010-11-05T02:00:00Z,29.1015,-89.9782,0.0,16.12,327.0,,'11111222,11111222,99999999' 
WAVCIS,ioos:station:WAVCIS:CSI09:1,2010-11-05T03:00:00Z,29.1015,-89.9782,0.0,14.92,332.0,,'11111222,11111222,99999999' 
WAVCIS,ioos:station:WAVCIS:CSI09:1,2010-11-05T04:00:00Z,29.1015,-89.9782,0.0,16.68,346.0,,'11111222,11111222,99999999' 
WAVCIS,ioos:station:WAVCIS:CSI09:1,2010-11-05T05:00:00Z,29.1015,-89.9782,0.0,14.89,349.0,,'11111222,11111222,99999999' 
WAVCIS,ioos:station:WAVCIS:CSI09:1,2010-11-05T06:00:00Z,29.1015,-89.9782,0.0,11.49,335.0,,'11111222,11111222,99999999' 
WAVCIS,ioos:station:WAVCIS:CSI09:1,2010-11-05T07:00:00Z,29.1015,-89.9782,0.0,8.49,321.0,,'11111222,11111222,99999999' 
WAVCIS,ioos:station:WAVCIS:CSI09:1,2010-11-05T08:00:00Z,29.1015,-89.9782,0.0,8.75,318.0,,'11111222,11111222,99999999' 
WAVCIS,ioos:station:WAVCIS:CSI09:1,2010-11-05T09:00:00Z,29.1015,-89.9782,0.0,9.92,301.0,,'11111222,11111222,99999999' 
WAVCIS,ioos:station:WAVCIS:CSI09:1,2010-11-05T10:00:00Z,29.1015,-89.9782,0.0,9.47,317.0,,'11111222,11111222,99999999' 
WAVCIS,ioos:station:WAVCIS:CSI09:1,2010-11-05T11:00:00Z,29.1015,-89.9782,0.0,10.22,319.0,,'11111222,11111222,99999999' 
WAVCIS,ioos:station:WAVCIS:CSI09:1,2010-11-05T12:00:00Z,29.1015,-89.9782,0.0,12.15,327.0,,'11111222,11111222,99999999' 
WAVCIS,ioos:station:WAVCIS:CSI09:1,2010-11-05T13:00:00Z,29.1015,-89.9782,0.0,11.55,332.0,,'11111222,11111222,99999999' 
WAVCIS,ioos:station:WAVCIS:CSI09:1,2010-11-05T14:00:00Z,29.1015,-89.9782,0.0,11.07,333.0,,'11111222,11111222,99999999' 
WAVCIS,ioos:station:WAVCIS:CSI09:1,2010-11-05T15:00:00Z,29.1015,-89.9782,0.0,9.56,346.0,,'11111222,11111222,99999999' 
WAVCIS,ioos:station:WAVCIS:CSI09:1,2010-11-05T16:00:00Z,29.1015,-89.9782,0.0,8.98,343.0,,'11111222,11111222,99999999' 
WAVCIS,ioos:station:WAVCIS:CSI09:1,2010-11-05T17:00:00Z,29.1015,-89.9782,0.0,7.96,333.0,,'11111222,11111222,99999999' 
WAVCIS,ioos:station:WAVCIS:CSI09:1,2010-11-05T18:00:00Z,29.1015,-89.9782,0.0,8.69,326.0,,'11111222,11111222,99999999' 
WAVCIS,ioos:station:WAVCIS:CSI09:1,2010-11-05T19:00:00Z,29.1015,-89.9782,0.0,7.91,339.0,,'11111222,11111222,99999999' 
WAVCIS,ioos:station:WAVCIS:CSI09:1,2010-11-05T20:00:00Z,29.1015,-89.9782,0.0,9.62,327.0,,'11111222,11111222,99999999' 
WAVCIS,ioos:station:WAVCIS:CSI09:1,2010-11-05T21:00:00Z,29.1015,-89.9782,0.0,9.24,342.0,,'11111222,11111222,99999999' 
WAVCIS,ioos:station:WAVCIS:CSI09:1,2010-11-05T22:00:00Z,29.1015,-89.9782,0.0,8.49,331.0,,'11111222,11111222,99999999' 
WAVCIS,ioos:station:WAVCIS:CSI09:1,2010-11-05T23:00:00Z,29.1015,-89.9782,0.0,7.28,335.0,,'11111222,11111222,99999999' 
WAVCIS,ioos:station:WAVCIS:CSI09:1,2010-11-06T00:00:00Z,29.1015,-89.9782,0.0,8.03,351.0,,'11111222,11111222,99999999' 
WAVCIS,ioos:station:WAVCIS:CSI09:1,2010-11-06T01:00:00Z,29.1015,-89.9782,0.0,8.86,339.0,,'11111222,11111222,99999999' 
WAVCIS,ioos:station:WAVCIS:CSI09:1,2010-11-06T02:00:00Z,29.1015,-89.9782,0.0,9.29,343.0,,'11111222,11111222,99999999' 
WAVCIS,ioos:station:WAVCIS:CSI09:1,2010-11-06T03:00:00Z,29.1015,-89.9782,0.0,10.4,344.0,,'11111222,11111222,99999999' 
WAVCIS,ioos:station:WAVCIS:CSI09:1,2010-11-06T04:00:00Z,29.1015,-89.9782,0.0,10.01,346.0,,'11111222,11111222,99999999' 
WAVCIS,ioos:station:WAVCIS:CSI09:1,2010-11-06T05:00:00Z,29.1015,-89.9782,0.0,10.16,354.0,,'11111222,11111222,99999999' 
WAVCIS,ioos:station:WAVCIS:CSI09:1,2010-11-06T06:00:00Z,29.1015,-89.9782,0.0,10.15,358.0,,'11111222,11111222,99999999' 
WAVCIS,ioos:station:WAVCIS:CSI09:1,2010-11-06T07:00:00Z,29.1015,-89.9782,0.0,9.42,5.0,,'11111222,11111222,99999999' 
WAVCIS,ioos:station:WAVCIS:CSI09:1,2010-11-06T08:00:00Z,29.1015,-89.9782,0.0,10.77,17.0,,'11111222,11111222,99999999' 
WAVCIS,ioos:station:WAVCIS:CSI09:1,2010-11-06T09:00:00Z,29.1015,-89.9782,0.0,9.47,13.0,,'11111222,11111222,99999999' 
WAVCIS,ioos:station:WAVCIS:CSI09:1,2010-11-06T10:00:00Z,29.1015,-89.9782,0.0,10.18,15.0,,'11111222,11111222,99999999' 
WAVCIS,ioos:station:WAVCIS:CSI09:1,2010-11-06T11:00:00Z,29.1015,-89.9782,0.0,9.15,23.0,,'11111222,11111222,99999999' 
WAVCIS,ioos:station:WAVCIS:CSI09:1,2010-11-06T12:00:00Z,29.1015,-89.9782,0.0,9.29,20.0,,'11111222,11111222,99999999' 
WAVCIS,ioos:station:WAVCIS:CSI09:1,2010-11-06T13:00:00Z,29.1015,-89.9782,0.0,8.68,22.0,,'11111222,11111222,99999999' 
WAVCIS,ioos:station:WAVCIS:CSI09:1,2010-11-06T14:00:00Z,29.1015,-89.9782,0.0,8.56,27.0,,'11111222,11111222,99999999' 
WAVCIS,ioos:station:WAVCIS:CSI09:1,2010-11-06T15:00:00Z,29.1015,-89.9782,0.0,8.86,18.0,,'11111222,11111222,99999999' 
WAVCIS,ioos:station:WAVCIS:CSI09:1,2010-11-06T16:00:00Z,29.1015,-89.9782,0.0,8.69,27.0,,'11111222,11111222,99999999' 
WAVCIS,ioos:station:WAVCIS:CSI09:1,2010-11-06T17:00:00Z,29.1015,-89.9782,0.0,9.51,29.0,,'11111222,11111222,99999999' 
WAVCIS,ioos:station:WAVCIS:CSI09:1,2010-11-06T18:00:00Z,29.1015,-89.9782,0.0,7.91,28.0,,'11111222,11111222,99999999' 
WAVCIS,ioos:station:WAVCIS:CSI09:1,2010-11-06T19:00:00Z,29.1015,-89.9782,0.0,6.399,13.0,,'11111222,11111222,99999999' 
WAVCIS,ioos:station:WAVCIS:CSI09:1,2010-11-06T20:00:00Z,29.1015,-89.9782,0.0,5.991,11.0,,'11111222,11111222,99999999' 
WAVCIS,ioos:station:WAVCIS:CSI09:1,2010-11-06T21:00:00Z,29.1015,-89.9782,0.0,5.087,4.0,,'11111222,11111222,99999999' 
WAVCIS,ioos:station:WAVCIS:CSI09:1,2010-11-06T22:00:00Z,29.1015,-89.9782,0.0,3.995,11.0,,'11111222,11111222,99999999' 
WAVCIS,ioos:station:WAVCIS:CSI09:1,2010-11-06T23:00:00Z,29.1015,-89.9782,0.0,4.034,350.0,,'11111222,11111222,99999999' 
WAVCIS,ioos:station:WAVCIS:CSI09:1,2010-11-07T00:00:00Z,29.1015,-89.9782,0.0,4.191,341.0,,'11111222,11111222,99999999' 
WAVCIS,ioos:station:WAVCIS:CSI09:1,2010-11-07T01:00:00Z,29.1015,-89.9782,0.0,5.225,340.0,,'11111222,11111222,99999999' 
WAVCIS,ioos:station:WAVCIS:CSI09:1,2010-11-07T02:00:00Z,29.1015,-89.9782,0.0,5.575,348.0,,'11111222,11111222,99999999' 
WAVCIS,ioos:station:WAVCIS:CSI09:1,2010-11-07T03:00:00Z,29.1015,-89.9782,0.0,6.285,355.0,,'11111222,11111222,99999999' 
WAVCIS,ioos:station:WAVCIS:CSI09:1,2010-11-07T04:00:00Z,29.1015,-89.9782,0.0,6.059,7.0,,'11111222,11111222,99999999' 
WAVCIS,ioos:station:WAVCIS:CSI09:1,2010-11-07T05:00:00Z,29.1015,-89.9782,0.0,7.67,27.0,,'11111222,11111222,99999999' 
WAVCIS,ioos:station:WAVCIS:CSI09:1,2010-11-07T06:00:00Z,29.1015,-89.9782,0.0,8.33,36.0,,'11111222,11111222,99999999' 
WAVCIS,ioos:station:WAVCIS:CSI09:1,2010-11-07T07:00:00Z,29.1015,-89.9782,0.0,8.58,39.0,,'11111222,11111222,99999999' 
WAVCIS,ioos:station:WAVCIS:CSI09:1,2010-11-07T08:00:00Z,29.1015,-89.9782,0.0,8.28,45.0,,'11111222,11111222,99999999' 
WAVCIS,ioos:station:WAVCIS:CSI09:1,2010-11-07T09:00:00Z,29.1015,-89.9782,0.0,7.08,47.0,,'11111222,11111222,99999999' 
WAVCIS,ioos:station:WAVCIS:CSI09:1,2010-11-07T10:00:00Z,29.1015,-89.9782,0.0,6.878,44.0,,'11111222,11111222,99999999' 
WAVCIS,ioos:station:WAVCIS:CSI09:1,2010-11-07T11:00:00Z,29.1015,-89.9782,0.0,7.51,47.0,,'11111222,11111222,99999999' 
WAVCIS,ioos:station:WAVCIS:CSI09:1,2010-11-07T12:00:00Z,29.1015,-89.9782,0.0,8.82,41.0,,'11111222,11111222,99999999' 
WAVCIS,ioos:station:WAVCIS:CSI09:1,2010-11-07T13:00:00Z,29.1015,-89.9782,0.0,7.9,44.0,,'11111222,11111222,99999999' 
WAVCIS,ioos:station:WAVCIS:CSI09:1,2010-11-07T14:00:00Z,29.1015,-89.9782,0.0,7.3,42.0,,'11111222,11111222,99999999' 
WAVCIS,ioos:station:WAVCIS:CSI09:1,2010-11-07T15:00:00Z,29.1015,-89.9782,0.0,7.28,43.0,,'11111222,11111222,99999999' 
WAVCIS,ioos:station:WAVCIS:CSI09:1,2010-11-07T16:00:00Z,29.1015,-89.9782,0.0,6.947,53.0,,'11111222,11111222,99999999' 
WAVCIS,ioos:station:WAVCIS:CSI09:1,2010-11-07T17:00:00Z,29.1015,-89.9782,0.0,7.6,46.0,,'11111222,11111222,99999999' 
WAVCIS,ioos:station:WAVCIS:CSI09:1,2010-11-07T18:00:00Z,29.1015,-89.9782,0.0,7.62,43.0,,'11111222,11111222,99999999' 
WAVCIS,ioos:station:WAVCIS:CSI09:1,2010-11-07T19:00:00Z,29.1015,-89.9782,0.0,7.35,47.0,,'11111222,11111222,99999999' 
WAVCIS,ioos:station:WAVCIS:CSI09:1,2010-11-07T20:00:00Z,29.1015,-89.9782,0.0,7.19,45.0,,'11111222,11111222,99999999' 
WAVCIS,ioos:station:WAVCIS:CSI09:1,2010-11-07T21:00:00Z,29.1015,-89.9782,0.0,6.863,41.0,,'11111222,11111222,99999999' 
WAVCIS,ioos:station:WAVCIS:CSI09:1,2010-11-07T22:00:00Z,29.1015,-89.9782,0.0,6.505,47.0,,'11111222,11111222,99999999' 
WAVCIS,ioos:station:WAVCIS:CSI09:1,2010-11-07T23:00:00Z,29.1015,-89.9782,0.0,7.39,43.0,,'11111222,11111222,99999999' 
WAVCIS,ioos:station:WAVCIS:CSI09:1,2010-11-08T00:00:00Z,29.1015,-89.9782,0.0,7.44,47.0,,'11111222,11111222,99999999' 
WAVCIS,ioos:station:WAVCIS:CSI09:1,2010-11-08T01:00:00Z,29.1015,-89.9782,0.0,7.53,48.0,,'11111222,11111222,99999999' 
WAVCIS,ioos:station:WAVCIS:CSI09:1,2010-11-08T02:00:00Z,29.1015,-89.9782,0.0,7.97,61.0,,'11111222,11111222,99999999' 
WAVCIS,ioos:station:WAVCIS:CSI09:1,2010-11-08T03:00:00Z,29.1015,-89.9782,0.0,7.35,61.0,,'11111222,11111222,99999999' 
WAVCIS,ioos:station:WAVCIS:CSI09:1,2010-11-08T04:00:00Z,29.1015,-89.9782,0.0,6.364,69.0,,'11111222,11111222,99999999' 
WAVCIS,ioos:station:WAVCIS:CSI09:1,2010-11-08T05:00:00Z,29.1015,-89.9782,0.0,6.044,65.0,,'11111222,11111222,99999999' 
WAVCIS,ioos:station:WAVCIS:CSI09:1,2010-11-08T06:00:00Z,29.1015,-89.9782,0.0,4.709,96.0,,'11111222,11111222,99999999' 
WAVCIS,ioos:station:WAVCIS:CSI09:1,2010-11-08T07:00:00Z,29.1015,-89.9782,0.0,3.689,98.0,,'11111222,11111222,99999999' 
WAVCIS,ioos:station:WAVCIS:CSI09:1,2010-11-08T08:00:00Z,29.1015,-89.9782,0.0,3.472,97.0,,'11111222,11111222,99999999' 
WAVCIS,ioos:station:WAVCIS:CSI09:1,2010-11-08T09:00:00Z,29.1015,-89.9782,0.0,2.55,90.0,,'11111222,11111222,99999999' 
WAVCIS,ioos:station:WAVCIS:CSI09:1,2010-11-08T10:00:00Z,29.1015,-89.9782,0.0,2.197,84.0,,'11111222,11111222,99999999' 
WAVCIS,ioos:station:WAVCIS:CSI09:1,2010-11-08T11:00:00Z,29.1015,-89.9782,0.0,3.139,49.0,,'11111222,11111222,99999999' 
WAVCIS,ioos:station:WAVCIS:CSI09:1,2010-11-08T12:00:00Z,29.1015,-89.9782,0.0,3.843,57.0,,'11111222,11111222,99999999' 
WAVCIS,ioos:station:WAVCIS:CSI09:1,2010-11-08T13:00:00Z,29.1015,-89.9782,0.0,3.59,60.0,,'11111222,11111222,99999999' 
WAVCIS,ioos:station:WAVCIS:CSI09:1,2010-11-08T14:00:00Z,29.1015,-89.9782,0.0,4.888,45.0,,'11111222,11111222,99999999' 
WAVCIS,ioos:station:WAVCIS:CSI09:1,2010-11-08T15:00:00Z,29.1015,-89.9782,0.0,6.326,43.0,,'11111222,11111222,99999999' 
WAVCIS,ioos:station:WAVCIS:CSI09:1,2010-11-08T16:00:00Z,29.1015,-89.9782,0.0,5.981,42.0,,'11111222,11111222,99999999' 
WAVCIS,ioos:station:WAVCIS:CSI09:1,2010-11-08T17:00:00Z,29.1015,-89.9782,0.0,5.395,46.0,,'11111222,11111222,99999999' 
WAVCIS,ioos:station:WAVCIS:CSI09:1,2010-11-08T18:00:00Z,29.1015,-89.9782,0.0,5.296,54.0,,'11111222,11111222,99999999' 
WAVCIS,ioos:station:WAVCIS:CSI09:1,2010-11-08T19:00:00Z,29.1015,-89.9782,0.0,4.647,51.0,,'11111222,11111222,99999999' 
WAVCIS,ioos:station:WAVCIS:CSI09:1,2010-11-08T20:00:00Z,29.1015,-89.9782,0.0,4.339,61.0,,'11111222,11111222,99999999' 
WAVCIS,ioos:station:WAVCIS:CSI09:1,2010-11-08T21:00:00Z,29.1015,-89.9782,0.0,3.717,68.0,,'11111222,11111222,99999999' 
WAVCIS,ioos:station:WAVCIS:CSI09:1,2010-11-08T22:00:00Z,29.1015,-89.9782,0.0,3.669,65.0,,'11111222,11111222,99999999' 
WAVCIS,ioos:station:WAVCIS:CSI09:1,2010-11-08T23:00:00Z,29.1015,-89.9782,0.0,2.985,75.0,,'11111222,11111222,99999999' 
WAVCIS,ioos:station:WAVCIS:CSI09:1,2010-11-09T00:00:00Z,29.1015,-89.9782,0.0,3.327,77.0,,'11111222,11111222,99999999' 
WAVCIS,ioos:station:WAVCIS:CSI09:1,2010-11-09T01:00:00Z,29.1015,-89.9782,0.0,3.312,82.0,,'11111222,11111222,99999999' 
WAVCIS,ioos:station:WAVCIS:CSI09:1,2010-11-09T02:00:00Z,29.1015,-89.9782,0.0,2.674,134.0,,'11111222,11111222,99999999' 
WAVCIS,ioos:station:WAVCIS:CSI09:1,2010-11-09T03:00:00Z,29.1015,-89.9782,0.0,3.052,135.0,,'11111222,11111222,99999999' 
WAVCIS,ioos:station:WAVCIS:CSI09:1,2010-11-09T04:00:00Z,29.1015,-89.9782,0.0,3.512,147.0,,'11111222,11111222,99999999' 
WAVCIS,ioos:station:WAVCIS:CSI09:1,2010-11-09T05:00:00Z,29.1015,-89.9782,0.0,3.775,137.0,,'11111222,11111222,99999999' 
WAVCIS,ioos:station:WAVCIS:CSI09:1,2010-11-09T06:00:00Z,29.1015,-89.9782,0.0,2.895,133.0,,'11111222,11111222,99999999' 
WAVCIS,ioos:station:WAVCIS:CSI09:1,2010-11-09T07:00:00Z,29.1015,-89.9782,0.0,2.268,118.0,,'11111222,11111222,99999999' 